Location: Cluj-Napoca
(46.7712°N, 23.6236°E)
Time: 03:53:01
(UTC+03:00)

ISS - Pass Details

Date: 05 July 2020
Orbit: 417 x 421 km, 51.6° (Epoch: 08 July)

Event Time Altitude Azimuth Distance (km) Brightness Sun altitude
Exits shadow 03:36:54 28° 242° (WSW) 810 -2.8 -14.8°
Maximum altitude 03:38:31 89° 149° (SSE) 422 -3.8 -14.7°
Drops below altitude 10° 03:41:53 10° 64° (ENE) 1,498 -0.1 -14.4°
Sets 03:43:59 0° 65° (ENE) 2,364 1.1 -14.2°
